Total_Precipitation_Accumulation
0.02 0.03 0.05 0.07 0.09 0.13 0.19 0.25 0.36 0.41 0.29 0.34 0.51 0.71 0.92 1.06 1.21 1.26 1.40 1.38 1.58 1.86 2.03 2.42 2.79 3.25 3.69 4.23 5.02 5.69 6.28 6.39 6.24 5.88 5.51 5.27 4.83 4.54 4.28 4.01 3.85 3.58 3.31 3.20
0.03 0.05 0.04 0.06 0.08 0.09 0.15 0.24 0.40 0.41 0.30 0.36 0.54 0.78 1.05 1.11 1.08 1.08 1.29 1.37 1.44 1.64 1.95 2.32 2.87 3.19 3.55 4.12 4.72 5.10 5.18 4.97 4.89 4.94 4.85 4.57 4.59 4.45 4.40 4.23 4.08 3.55 3.36 3.25
0.05 0.06 0.05 0.05 0.09 0.10 0.14 0.22 0.29 0.34 0.36 0.45 0.65 1.03 1.29 1.28 1.07 0.98 1.01 1.12 1.23 1.37 1.57 1.92 2.53 2.87 3.06 3.60 3.97 3.97 3.93 3.86 3.99 4.07 4.00 4.04 4.31 4.40 4.50 4.46 4.20 3.76 3.56 3.43
0.03 0.05 0.06 0.06 0.10 0.10 0.15 0.16 0.19 0.24 0.37 0.68 0.79 1.32 1.62 1.67 1.45 1.14 1.01 1.12 1.20 1.29 1.33 1.64 2.00 2.25 2.54 2.84 3.02 3.00 3.11 3.22 3.31 3.40 3.41 3.30 3.33 3.61 3.90 4.14 4.22 4.10 3.84 3.62
0.04 0.05 0.06 0.07 0.09 0.10 0.12 0.12 0.17 0.26 0.37 0.57 0.69 1.03 1.58 1.86 1.84 1.45 1.16 1.06 1.02 1.16 1.38 1.57 1.69 1.88 2.00 2.10 2.26 2.34 2.60 3.01 3.19 3.30 3.44 3.34 3.01 3.03 3.13 3.30 3.50 3.52 3.52 3.37
0.05 0.06 0.06 0.06 0.07 0.10 0.11 0.17 0.27 0.40 0.61 0.91 0.82 0.92 1.45 1.68 1.73 1.37 1.14 1.05 0.95 0.94 1.09 1.31 1.59 1.70 1.69 1.68 1.84 2.07 2.38 2.91 3.21 3.33 3.26 3.23 3.14 3.15 3.08 3.08 3.18 3.09 3.09 3.03
0.16 0.14 0.10 0.07 0.08 0.11 0.13 0.24 0.65 1.09 1.44 1.49 0.91 0.89 1.15 1.21 1.10 1.10 0.96 0.92 0.97 0.91 0.87 0.88 1.07 1.34 1.33 1.30 1.49 1.75 1.97 2.44 2.79 2.97 2.86 2.80 2.94 3.05 2.90 2.72 2.68 2.67 2.54 2.49
0.19 0.23 0.14 0.10 0.09 0.10 0.13 0.19 0.50 0.84 1.03 1.16 1.03 1.37 1.47 1.08 0.89 0.80 0.70 0.73 0.83 0.74 0.67 0.63 0.70 0.89 1.14 1.17 1.26 1.39 1.63 1.92 2.25 2.47 2.54 2.62 2.80 2.90 2.82 2.99 2.71 2.58 2.26 2.12
0.08 0.11 0.10 0.10 0.10 0.13 0.15 0.16 0.24 0.37 0.54 0.87 1.17 1.38 1.33 1.10 1.02 0.83 0.66 0.61 0.61 0.58 0.56 0.56 0.63 0.83 0.91 0.95 1.04 1.20 1.40 1.60 1.83 2.09 2.33 2.41 2.40 2.41 2.56 2.72 2.65 2.48 2.39 2.14
0.05 0.06 0.08 0.10 0.11 0.13 0.15 0.16 0.21 0.30 0.50 0.74 1.06 1.47 1.57 1.38 1.17 0.99 0.89 0.70 0.58 0.60 0.60 0.57 0.58 0.67 0.74 0.81 0.92 1.13 1.32 1.36 1.59 1.99 2.28 2.27 2.36 2.28 2.43 2.40 2.39 2.42 2.32 2.24
0.05 0.05 0.08 0.11 0.14 0.17 0.19 0.17 0.18 0.24 0.28 0.44 0.93 1.23 1.13 1.13 1.06 0.99 0.87 0.77 0.71 0.68 0.66 0.62 0.62 0.62 0.75 0.69 0.78 0.96 1.09 1.25 1.56 1.93 2.26 2.40 2.35 2.31 2.38 2.22 2.16 2.27 2.28 2.26
0.05 0.05 0.08 0.14 0.19 0.19 0.19 0.19 0.20 0.27 0.27 0.30 0.50 0.83 0.68 0.76 0.88 0.90 0.75 0.68 0.65 0.57 0.54 0.50 0.49 0.55 0.55 0.57 0.69 0.99 1.31 1.66 1.87 2.19 2.55 2.72 2.52 2.30 2.15 1.97 1.95 2.09 2.25 2.30
0.05 0.06 0.15 0.33 0.36 0.26 0.20 0.17 0.18 0.20 0.21 0.26 0.51 0.77 0.63 0.68 0.82 0.80 0.74 0.68 0.67 0.68 0.55 0.53 0.49 0.57 0.59 0.57 0.59 0.73 0.91 1.30 1.65 2.01 2.38 2.45 2.23 2.01 1.97 1.95 1.98 2.10 2.29 2.31
0.06 0.06 0.10 0.28 0.35 0.34 0.28 0.22 0.19 0.17 0.20 0.26 0.36 0.63 0.64 0.69 0.67 0.72 0.67 0.64 0.72 0.81 0.68 0.62 0.59 0.58 0.58 0.59 0.58 0.68 0.78 0.88 1.14 1.62 1.96 1.95 1.82 1.77 1.82 1.86 1.92 1.94 2.04 2.11
0.07 0.07 0.06 0.08 0.16 0.24 0.26 0.23 0.20 0.17 0.16 0.28 0.32 0.43 0.54 0.71 0.70 0.72 0.70 0.64 0.61 0.72 0.68 0.63 0.63 0.70 0.72 0.77 0.78 0.79 0.82 0.84 1.04 1.56 1.83 1.79 1.71 1.75 1.74 1.74 1.86 1.94 1.99 2.01
0.10 0.11 0.10 0.11 0.15 0.17 0.18 0.21 0.19 0.14 0.13 0.12 0.19 0.36 0.42 0.67 0.84 0.81 0.82 0.79 0.72 0.71 0.67 0.65 0.57 0.66 0.77 0.85 0.88 0.89 0.95 1.01 1.14 1.50 1.79 1.76 1.66 1.64 1.59 1.67 1.81 1.94 2.02 2.19
0.16 0.15 0.15 0.17 0.20 0.19 0.26 0.22 0.18 0.16 0.16 0.17 0.27 0.41 0.43 0.52 0.70 0.80 0.82 0.78 0.71 0.72 0.65 0.65 0.69 0.77 0.96 0.91 0.94 1.02 0.96 1.02 1.20 1.56 1.81 1.83 1.74 1.70 1.67 1.63 1.81 2.01 2.24 2.43
0.29 0.27 0.26 0.22 0.26 0.38 0.29 0.22 0.23 0.26 0.30 0.31 0.34 0.38 0.42 0.56 0.64 0.78 0.95 0.82 0.68 0.71 0.73 0.81 0.79 0.84 0.93 0.93 0.99 1.06 1.08 1.12 1.28 1.57 1.79 1.87 1.85 1.88 1.96 1.98 2.05 2.24 2.50 2.68
0.34 0.40 0.36 0.32 0.36 0.42 0.39 0.31 0.35 0.40 0.46 0.48 0.50 0.44 0.50 0.58 0.70 0.87 0.82 0.81 0.85 0.86 0.86 0.91 0.99 1.03 1.12 1.11 1.07 1.15 1.30 1.36 1.42 1.49 1.73 1.93 2.05 2.12 2.10 2.15 2.42 2.62 2.79 2.82
0.37 0.46 0.50 0.45 0.54 0.61 0.60 0.44 0.38 0.47 0.80 0.63 0.65 0.63 0.57 0.62 0.90 1.05 0.87 0.79 0.79 0.90 1.01 1.01 1.07 1.13 1.16 1.21 1.28 1.35 1.47 1.63 1.76 1.86 2.02 2.31 2.52 2.65 2.68 2.76 2.82 2.89 2.99 2.94
0.66 0.63 0.62 0.67 0.80 0.74 0.58 0.51 0.46 0.88 1.22 0.89 0.86 0.84 0.75 0.87 0.99 1.00 0.87 0.81 0.77 0.80 0.95 1.04 1.07 1.17 1.27 1.28 1.43 1.71 1.85 1.95 2.13 2.30 2.38 2.64 2.99 3.17 3.13 3.15 3.04 2.96 2.96 2.97
0.89 0.85 0.85 0.90 1.15 1.22 0.68 0.62 0.98 1.23 1.04 1.05 1.07 1.05 0.98 0.97 1.02 1.03 1.00 0.86 0.81 0.83 0.89 1.01 1.10 1.18 1.38 1.64 1.84 2.12 2.30 2.37 2.45 2.61 2.91 3.14 3.31 3.14 3.05 3.21 3.10 3.11 3.17 3.14
0.98 1.02 1.10 1.18 1.40 1.20 0.84 0.95 1.13 1.12 1.10 1.14 1.12 1.07 0.97 0.93 1.09 1.05 0.99 0.98 0.87 0.84 0.89 0.99 1.10 1.28 1.48 1.79 2.19 2.44 2.53 2.74 2.75 2.81 3.01 3.08 3.14 3.25 3.38 3.44 3.31 3.24 3.23 3.16
1.20 1.07 1.26 1.48 1.54 1.30 1.14 1.12 1.08 1.11 1.14 1.10 1.03 0.99 1.00 0.97 0.99 1.00 0.96 0.94 0.90 0.91 0.99 1.04 1.15 1.36 1.66 1.97 2.31 2.47 2.54 2.59 2.62 2.66 2.70 2.81 2.99 3.12 3.23 3.45 3.45 3.32 3.14 3.04
1.42 1.32 1.57 1.97 2.04 1.89 1.74 1.49 1.31 1.26 1.19 1.23 1.19 1.11 1.08 1.04 0.99 0.95 0.96 0.95 0.95 0.96 1.07 1.17 1.28 1.39 1.55 1.80 2.08 2.21 2.39 2.51 2.68 2.73 2.66 2.58 2.62 2.75 2.90 3.02 3.11 3.05 3.00 2.86
1.59 1.63 1.89 2.27 2.00 1.97 2.12 1.85 1.61 1.55 1.53 1.53 1.49 1.43 1.31 1.23 1.17 1.09 1.04 0.97 0.94 0.95 1.04 1.17 1.31 1.47 1.63 1.80 1.99 2.10 2.30 2.47 2.63 2.65 2.54 2.51 2.47 2.55 2.61 2.62 2.59 2.46 2.36 2.22